Home > Weather > Tucumán > Past weeks

Flag for Argentina Past Weather in Tucumán, Tucumán, Argentina — Yesterday and Last 2 Weeks

Now
63 °F

Overcast.


Feels Like: 63 °F
Forecast: 51 / 62 °F
Wind: 5 mph from South

Location: Tucuman Aerodrome

Current Time: May 26, 2016 at 3:29:41 PM

Latest Report: May 26, 2016 at 3:00 PM


Visibility: N/A

Pressure: 30.24 "Hg

Humidity: 68%

Dew Point: 52 °F

Location of TucumánLocation

Past Weather in Tucumán — Graph

°F

Tucumán Temperature Yesterday

Maximum temperature yesterday: 64 °F (at 1:00 PM)
Minimum temperature yesterday: 46 °F (at 7:00 AM)
Average temperature yesterday: 56 °F

High & Low Weather Summary for the Past Weeks

 TemperatureHumidityPressure
High72 °F (May 15, 2:00 PM)100% (May 12, 12:00 AM)30.36 "Hg (May 12, 12:00 AM)
Low46 °F (May 22, 7:00 AM)49% (May 22, 4:00 PM)29.74 "Hg (May 14, 4:00 PM)
Average57 °F85%30.15 "Hg
* Reported May 11 2:00 PM — May 26 2:00 PM, Tucumán, Weather by CustomWeather, © 2016

Note: Actual official high and low records may vary slightly from our data, if they occured in-between our weather recording intervals... More about our weather records

Advertising

Tucumán Weather History for the Previous 24 Hours

Scroll right to see more
 ConditionsComfort  
Time TempWeatherWind HumidityBarometerVisibility
2:00 PM
Thu, May 26
61 °FOvercast.3 mph68%30.27 "HgN/A
1:00 PM61 °FSunny.6 mph72%30.30 "Hg10 mi
12:00 PM59 °FSunny.7 mph77%30.33 "Hg10 mi
11:00 AM59 °FSunny.5 mph77%30.33 "Hg10 mi
10:00 AM57 °FSunny.5 mph82%30.30 "Hg10 mi
9:00 AM55 °FClear.5 mph88%30.30 "Hg6 mi
8:00 AM55 °FClear.5 mph88%30.27 "Hg6 mi
7:00 AM55 °FOvercast.5 mph88%30.24 "HgN/A
6:00 AM55 °FOvercast.7 mph82%30.24 "HgN/A
5:00 AM55 °FOvercast.9 mph88%30.24 "HgN/A
4:00 AM55 °FOvercast.5 mph88%30.21 "HgN/A
3:00 AM54 °FOvercast.7 mph94%30.21 "HgN/A
2:00 AM52 °FClear.5 mph88%30.18 "HgN/A
1:00 AM52 °FClear.5 mph88%30.18 "HgN/A
12:00 AM54 °FClear.9 mph88%30.18 "Hg6 mi
11:00 PM
Wed, May 25
54 °FClear.7 mph88%30.15 "Hg6 mi
10:00 PM54 °FClear.7 mph94%30.12 "Hg6 mi
9:00 PM57 °FClear.6 mph82%30.09 "Hg6 mi
8:00 PM59 °FClear.2 mph77%30.07 "Hg6 mi
7:00 PM59 °FClear.8 mph77%30.04 "Hg5 mi
6:00 PM64 °FPassing clouds.3 mph68%30.01 "Hg5 mi
5:00 PM64 °FPartly sunny.3 mph68%30.01 "Hg5 mi
4:00 PM64 °FPartly sunny.3 mph64%29.98 "Hg5 mi
3:00 PM64 °FPartly sunny.No wind64%30.01 "Hg6 mi
Weather by CustomWeather, © 2016

See weather overviewHow to use our weather pages